• în România
  • Lista ţărilor
  • Pe 7 zile
  • Temperatura apei
  • Hartă satelitară
  • Meteo pe hartă
  • Widget-uri
  • user-avatar
    Intrare

    Meteo pe oră la Morpeth

    Astăzi, 25 Iunie, Luni

    Timp Temperatura Precipitaţii Vânt Presiune Umiditate
    00:00 +13°C° 0 mm 3 m/s 763 mmHg 86%
    01:00 +12°C° 0 mm 3 m/s 763 mmHg 85%
    02:00 +12°C° 0 mm 3 m/s 763 mmHg 84%
    03:00 +11°C° 0 mm 3 m/s 763 mmHg 83%
    04:00 +12°C° 0 mm 3 m/s 763 mmHg 82%
    05:00 +13°C° 0 mm 3 m/s 763 mmHg 80%
    06:00 +16°C° 0 mm 2 m/s 763 mmHg 76%
    07:00 +17°C° 0 mm 3 m/s 764 mmHg 71%
    08:00 +19°C° 0 mm 3 m/s 764 mmHg 66%
    09:00 +20°C° 0 mm 3 m/s 764 mmHg 61%
    10:00 +21°C° 0 mm 3 m/s 764 mmHg 58%
    11:00 +22°C° 0 mm 3 m/s 764 mmHg 55%
    12:00 +24°C° 0 mm 3 m/s 765 mmHg 52%
    13:00 +24°C° 0 mm 3 m/s 765 mmHg 53%
    14:00 +24°C° 0 mm 2 m/s 765 mmHg 54%
    15:00 +24°C° 0 mm 2 m/s 764 mmHg 55%
    16:00 +23°C° 0 mm 2 m/s 765 mmHg 59%
    17:00 +23°C° 0 mm 2 m/s 765 mmHg 63%
    18:00 +21°C° 0 mm 2 m/s 765 mmHg 68%
    19:00 +19°C° 0 mm 2 m/s 765 mmHg 70%
    20:00 +18°C° 0 mm 1 m/s 765 mmHg 73%
    21:00 +15°C° 0 mm 1 m/s 765 mmHg 75%
    22:00 +15°C° 0 mm 1 m/s 765 mmHg 75%
    23:00 +15°C° 0 mm 1 m/s 765 mmHg 74%

    Mâine, 26 Iunie, Marţi

    Timp Temperatura Precipitaţii Vânt Presiune Umiditate
    00:00 +14°C° 0 mm 1 m/s 766 mmHg 74%
    01:00 +14°C° 0 mm 1 m/s 765 mmHg 74%
    02:00 +14°C° 0 mm 1 m/s 765 mmHg 75%
    03:00 +13°C° 0 mm 1 m/s 765 mmHg 75%
    04:00 +15°C° 0 mm 1 m/s 765 mmHg 74%
    05:00 +16°C° 0 mm 1 m/s 765 mmHg 74%
    06:00 +18°C° 0 mm 1 m/s 765 mmHg 73%
    07:00 +19°C° 0 mm 1 m/s 765 mmHg 70%
    08:00 +21°C° 0 mm 1 m/s 765 mmHg 67%
    09:00 +21°C° 0 mm 2 m/s 766 mmHg 64%
    10:00 +23°C° 0 mm 2 m/s 766 mmHg 62%
    11:00 +24°C° 0 mm 2 m/s 766 mmHg 60%
    12:00 +25°C° 0 mm 3 m/s 766 mmHg 58%
    13:00 +25°C° 0 mm 3 m/s 766 mmHg 59%
    14:00 +25°C° 0 mm 3 m/s 765 mmHg 59%
    15:00 +25°C° 0 mm 4 m/s 765 mmHg 59%
    16:00 +23°C° 0 mm 4 m/s 765 mmHg 62%
    17:00 +22°C° 0 mm 3 m/s 765 mmHg 65%
    18:00 +22°C° 0 mm 3 m/s 765 mmHg 68%
    19:00 +20°C° 0 mm 3 m/s 766 mmHg 71%
    20:00 +19°C° 0 mm 3 m/s 766 mmHg 74%
    21:00 +17°C° 0 mm 3 m/s 766 mmHg 76%
    22:00 +16°C° 0 mm 3 m/s 766 mmHg 78%
    23:00 +16°C° 0 mm 3 m/s 766 mmHg 79%

    Poimâine, 27 Iunie, Miercuri

    Timp Temperatura Precipitaţii Vânt Presiune Umiditate
    00:00 +15°C° 0 mm 2 m/s 766 mmHg 81%
    01:00 +15°C° 0 mm 2 m/s 766 mmHg 81%
    02:00 +14°C° 0 mm 2 m/s 766 mmHg 81%
    03:00 +14°C° 0 mm 2 m/s 766 mmHg 81%
    04:00 +15°C° 0 mm 2 m/s 766 mmHg 79%
    05:00 +16°C° 0 mm 2 m/s 766 mmHg 76%
    06:00 +17°C° 0 mm 2 m/s 766 mmHg 74%
    07:00 +18°C° 0 mm 2 m/s 766 mmHg 70%
    08:00 +19°C° 0 mm 2 m/s 766 mmHg 66%
    09:00 +21°C° 0 mm 2 m/s 766 mmHg 62%
    10:00 +22°C° 0 mm 3 m/s 766 mmHg 60%
    11:00 +22°C° 0 mm 3 m/s 766 mmHg 59%
    12:00 +24°C° 0 mm 3 m/s 766 mmHg 57%
    13:00 +24°C° 0 mm 3 m/s 766 mmHg 58%
    14:00 +25°C° 0 mm 4 m/s 766 mmHg 60%
    15:00 +25°C° 0 mm 4 m/s 766 mmHg 61%
    16:00 +23°C° 0 mm 4 m/s 766 mmHg 64%
    17:00 +22°C° 0 mm 4 m/s 766 mmHg 67%
    18:00 +21°C° 0 mm 4 m/s 766 mmHg 71%
    19:00 +19°C° 0 mm 3 m/s 766 mmHg 74%
    20:00 +18°C° 0 mm 3 m/s 766 mmHg 78%
    21:00 +16°C° 0 mm 3 m/s 766 mmHg 82%
    22:00 +14°C° 0 mm 3 m/s 766 mmHg 82%
    23:00 +15°C° 0 mm 2 m/s 766 mmHg 82%

    28 Iunie, Joi

    Timp Temperatura Precipitaţii Vânt Presiune Umiditate
    00:00 +14°C° 0 mm 2 m/s 766 mmHg 82%
    01:00 +14°C° 0 mm 2 m/s 766 mmHg 80%
    02:00 +14°C° 0 mm 2 m/s 766 mmHg 78%
    03:00 +13°C° 0 mm 1 m/s 766 mmHg 76%
    04:00 +14°C° 0 mm 1 m/s 766 mmHg 75%
    05:00 +16°C° 0 mm 1 m/s 766 mmHg 73%
    06:00 +18°C° 0 mm 1 m/s 766 mmHg 72%
    07:00 +19°C° 0 mm 1 m/s 766 mmHg 67%
    08:00 +21°C° 0 mm 1 m/s 766 mmHg 63%
    09:00 +23°C° 0 mm 2 m/s 766 mmHg 59%
    10:00 +24°C° 0 mm 2 m/s 766 mmHg 57%
    11:00 +25°C° 0 mm 2 m/s 766 mmHg 54%
    12:00 +26°C° 0 mm 2 m/s 766 mmHg 52%
    13:00 +26°C° 0 mm 2 m/s 766 mmHg 52%
    14:00 +26°C° 0 mm 2 m/s 765 mmHg 52%
    15:00 +26°C° 0 mm 2 m/s 765 mmHg 53%
    16:00 +25°C° 0 mm 3 m/s 765 mmHg 57%
    17:00 +25°C° 0 mm 3 m/s 765 mmHg 61%
    18:00 +24°C° 0 mm 3 m/s 765 mmHg 65%
    19:00 +21°C° 0 mm 2 m/s 765 mmHg 67%
    20:00 +18°C° 0 mm 2 m/s 766 mmHg 69%
    21:00 +16°C° 0 mm 2 m/s 766 mmHg 71%
    22:00 +15°C° 0 mm 1 m/s 766 mmHg 70%
    23:00 +15°C° 0 mm 1 m/s 766 mmHg 70%

    29 Iunie, Vineri

    Timp Temperatura Precipitaţii Vânt Presiune Umiditate
    00:00 +14°C° 0 mm 1 m/s 766 mmHg 69%
    01:00 +14°C° 0 mm 1 m/s 766 mmHg 71%
    02:00 +13°C° 0 mm 1 m/s 766 mmHg 73%
    03:00 +13°C° 0 mm 1 m/s 765 mmHg 75%
    04:00 +14°C° 0 mm 1 m/s 765 mmHg 75%
    05:00 +14°C° 0 mm 2 m/s 765 mmHg 75%
    06:00 +15°C° 0 mm 2 m/s 765 mmHg 75%
    07:00 +17°C° 0 mm 2 m/s 765 mmHg 73%
    08:00 +18°C° 0 mm 3 m/s 765 mmHg 72%
    09:00 +19°C° 0 mm 3 m/s 765 mmHg 71%
    10:00 +20°C° 0 mm 3 m/s 765 mmHg 71%
    11:00 +20°C° 0 mm 4 m/s 765 mmHg 70%
    12:00 +21°C° 0 mm 4 m/s 765 mmHg 70%
    13:00 +21°C° 0 mm 4 m/s 764 mmHg 70%
    14:00 +21°C° 0 mm 4 m/s 764 mmHg 71%
    15:00 +21°C° 0 mm 4 m/s 764 mmHg 71%
    16:00 +20°C° 0 mm 4 m/s 763 mmHg 73%
    17:00 +19°C° 0 mm 3 m/s 763 mmHg 76%
    18:00 +19°C° 0 mm 3 m/s 763 mmHg 79%
    19:00 +17°C° 0 mm 3 m/s 763 mmHg 84%
    20:00 +15°C° 0 mm 2 m/s 763 mmHg 88%
    21:00 +14°C° 0 mm 2 m/s 763 mmHg 93%
    22:00 +13°C° 0 mm 2 m/s 763 mmHg 93%
    23:00 +13°C° 0 mm 1 m/s 763 mmHg 94%

    30 Iunie, Sâmbătă

    Timp Temperatura Precipitaţii Vânt Presiune Umiditate
    00:00 +12°C° 0 mm 1 m/s 762 mmHg 94%
    01:00 +12°C° 0 mm 1 m/s 762 mmHg 94%
    02:00 +12°C° 0 mm 1 m/s 762 mmHg 94%
    03:00 +12°C° 0 mm 1 m/s 762 mmHg 94%
    04:00 +13°C° 0 mm 1 m/s 761 mmHg 93%
    05:00 +13°C° 0 mm 1 m/s 761 mmHg 91%
    06:00 +14°C° 0 mm 1 m/s 761 mmHg 89%
    07:00 +16°C° 0 mm 1 m/s 761 mmHg 84%
    08:00 +18°C° 0 mm 1 m/s 761 mmHg 79%
    09:00 +18°C° 0 mm 2 m/s 760 mmHg 75%
    10:00 +20°C° 0 mm 2 m/s 760 mmHg 70%
    11:00 +21°C° 0 mm 2 m/s 760 mmHg 66%
    12:00 +23°C° 0 mm 2 m/s 760 mmHg 62%
    13:00 +24°C° 0 mm 3 m/s 759 mmHg 62%
    14:00 +24°C° 0 mm 3 m/s 759 mmHg 62%
    15:00 +24°C° 0 mm 3 m/s 759 mmHg 62%
    16:00 +24°C° 0 mm 3 m/s 759 mmHg 66%
    17:00 +22°C° 0 mm 3 m/s 758 mmHg 70%
    18:00 +21°C° 0 mm 3 m/s 758 mmHg 74%
    19:00 +20°C° 0 mm 3 m/s 758 mmHg 78%
    20:00 +19°C° 0 mm 3 m/s 758 mmHg 82%
    21:00 +17°C° 0 mm 2 m/s 758 mmHg 85%
    22:00 +17°C° 0 mm 2 m/s 758 mmHg 86%
    23:00 +17°C° 0 mm 2 m/s 758 mmHg 86%
    Arată mai mult